| time (UTC) | temp C | wind direction | speed KPH | gust KPH | rain 1hr cm | rain 24hr cm | rain mn cm | humidity % | barometer mb |
| 20260504030028 | 15 | 37 | 17.7 | 27.4 | 0.00 | 0.00 | 0.00 | 80 | 1033.6 |
| 20260504024528 | 15 | 37 | 16.1 | 30.6 | 0.00 | 0.00 | 0.00 | 80 | 1033.7 |
| 20260504023025 | 15 | 3 | 17.7 | 27.4 | 0.00 | 0.00 | 0.00 | 79 | 1033.7 |
| 20260504020023 | 15 | 36 | 17.7 | 30.6 | 0.00 | 0.00 | 0.00 | 77 | 1033.8 |
| 20260504014526 | 15 | 15 | 17.7 | 30.6 | 0.00 | 0.00 | 0.00 | 79 | 1033.9 |
| 20260504013021 | 15 | 178 | 9.7 | 32.2 | 0.00 | 0.00 | 0.00 | 80 | 1034.0 |
| 20260504010018 | 15 | 14 | 12.9 | 24.1 | 0.00 | 0.00 | 0.00 | 79 | 1034.2 |
| 20260504004519 | 15 | 52 | 16.1 | 29.0 | 0.00 | 0.00 | 0.00 | 77 | 1034.4 |
| 20260504003016 | 15 | 35 | 16.1 | 27.4 | 0.00 | 0.00 | 0.00 | 77 | 1034.5 |
| 20260504000013 | 15 | 15 | 8.0 | 30.6 | 0.00 | 0.00 | 0.00 | 77 | 1034.7 |
| 20260503234518 | 15 | 35 | 12.9 | 29.0 | 0.00 | 0.00 | 0.00 | 78 | 1034.9 |
| 20260503233012 | 15 | 80 | 14.5 | 24.1 | 0.00 | 0.00 | 0.00 | 76 | 1034.9 |
| 20260503230012 | 15 | 29 | 19.3 | 32.2 | 0.00 | 0.00 | 0.00 | 77 | 1034.9 |
| 20260503224511 | 15 | 14 | 8.0 | 27.4 | 0.00 | 0.00 | 0.00 | 77 | 1034.8 |
| 20260503223009 | 15 | 9 | 12.9 | 25.7 | 0.00 | 0.00 | 0.00 | 79 | 1034.9 |
| 20260503220007 | 15 | 90 | 8.0 | 27.4 | 0.00 | 0.00 | 0.00 | 79 | 1034.8 |
| 20260503214520 | 14 | 32 | 16.1 | 24.1 | 0.00 | 0.00 | 0.00 | 78 | 1034.8 |
| 20260503213006 | 14 | 37 | 8.0 | 22.5 | 0.00 | 0.00 | 0.00 | 80 | 1034.9 |
| 20260503210002 | 14 | 38 | 8.0 | 20.9 | 0.00 | 0.00 | 0.00 | 82 | 1035.1 |
| 20260503204500 | 14 | 33 | 6.4 | 24.1 | 0.00 | 0.00 | 0.00 | 81 | 1035.0 |
| 20260503203059 | 13 | 36 | 14.5 | 25.7 | 0.00 | 0.00 | 0.00 | 79 | 1034.9 |
| 20260503201659 | 13 | 124 | 4.8 | 19.3 | 0.00 | 0.00 | 0.00 | 79 | 1034.7 |
| 20260503200113 | 13 | 80 | 6.4 | 14.5 | 0.00 | 0.00 | 0.00 | 80 | 1034.7 |
| 20260503194604 | 13 | 116 | 1.6 | 16.1 | 0.00 | 0.00 | 0.00 | 80 | 1034.6 |
| 20260503193103 | 13 | 29 | 4.8 | 12.9 | 0.00 | 0.00 | 0.00 | 80 | 1034.4 |
| 20260503191656 | 13 | 34 | 9.7 | 20.9 | 0.00 | 0.00 | 0.00 | 80 | 1034.3 |
| 20260503190020 | 13 | 131 | 4.8 | 17.7 | 0.00 | 0.00 | 0.00 | 80 | 1034.3 |
| 20260503184523 | 13 | 43 | 4.8 | 16.1 | 0.00 | 0.00 | 0.00 | 80 | 1034.2 |
| 20260503183015 | 13 | 29 | 11.3 | 17.7 | 0.00 | 0.00 | 0.00 | 80 | 1034.2 |
| 20260503181608 | 13 | 15 | 8.0 | 20.9 | 0.00 | 0.00 | 0.00 | 80 | 1034.2 |
| 20260503180111 | 13 | 44 | 6.4 | 17.7 | 0.00 | 0.00 | 0.00 | 81 | 1034.2 |
| 20260503174541 | 13 | 28 | 4.8 | 14.5 | 0.00 | 0.00 | 0.00 | 81 | 1034.2 |
| 20260503173003 | 13 | 47 | 8.0 | 16.1 | 0.00 | 0.00 | 0.00 | 80 | 1034.2 |
| 20260503171520 | 13 | 28 | 8.0 | 16.1 | 0.00 | 0.00 | 0.00 | 80 | 1034.2 |
| 20260503081551 | 12 | 39 | 0.0 | 8.0 | 0.00 | 0.00 | 0.00 | 81 | 1033.9 |
| 20260503071557 | 13 | 34 | 9.7 | 16.1 | 0.00 | 0.00 | 0.00 | 80 | 1033.9 |
| 20260503054520 | 13 | 86 | 3.2 | 12.9 | 0.00 | 0.00 | 0.00 | 79 | 1033.7 |
| 20260503053052 | 13 | 36 | 6.4 | 14.5 | 0.00 | 0.00 | 0.00 | 78 | 1033.5 |
| 20260503053020 | 13 | 48 | 4.8 | 14.5 | 0.00 | 0.00 | 0.00 | 78 | 1033.5 |
| 20260503051521 | 14 | 24 | 11.3 | 22.5 | 0.00 | 0.00 | 0.00 | 76 | 1033.4 |
| 20260503044547 | 15 | 29 | 14.5 | 20.9 | 0.00 | 0.00 | 0.00 | 75 | 1033.6 |
| 20260503043031 | 15 | 26 | 14.5 | 20.9 | 0.00 | 0.00 | 0.00 | 75 | 1033.6 |
| 20260503040039 | 15 | 44 | 14.5 | 22.5 | 0.00 | 0.00 | 0.00 | 74 | 1033.5 |
| 20260503034535 | 15 | 47 | 11.3 | 22.5 | 0.00 | 0.00 | 0.00 | 74 | 1033.5 |